Location: Pulvis Stellarum Observatory
(41.6962°N, 71.4263°W)
Time: 14:01:21
(UTC-04:00)

Daily predictions for brighter satellites

Satellite Brightness Start Highest point End
(mag) Time Altitude Azimuth Time Altitude Azimuth Time Altitude Azimuth
Meteor 2-21 4.5 19:51:04 10° S 19:57:12 70° E 20:03:20 10° NNE
Cosmos 1777 Rocket 4.1 19:53:45 10° NNW 19:58:58 60° ENE 20:04:09 10° SSE
Cosmos 2123 Rocket 4.4 19:53:38 10° N 19:59:29 42° ENE 20:05:17 10° SSE
Cosmos 2297 Rocket 3.4 19:55:25 10° N 20:00:09 26° NE 20:04:51 10° ESE
Helios 1B rocket 3.3 19:57:00 10° N 20:01:03 56° WNW 20:05:04 10° SSW
Meteor 1-11 Rocket 4.2 20:00:40 10° SSW 20:06:15 68° W 20:11:47 10° N
Lacrosse 5 3.8 20:03:31 10° NNW 20:07:12 20° NNE 20:10:53 10° ENE
Cosmos 2208 Rocket 4.3 20:04:58 10° S 20:09:59 45° ESE 20:15:06 10° NNE
Meteor 2-15 4.5 20:06:04 10° N 20:12:06 64° E 20:18:06 10° SSE
H-2A R/B 3.9 20:12:22 10° E 20:14:36 14° ENE 20:16:52 10° NNE
EO 1 Delta rocket 4.0 20:10:03 10° NNE 20:14:37 56° E 20:19:41 10° S
Cosmos 1892 Rocket 3.6 20:11:15 10° N 20:15:45 78° E 20:20:13 10° S
NOSS 3-4 (A) 3.9 20:08:47 10° NNW 20:15:46 68° NE 20:23:10 10° SE
NOSS 3-4 (C) 3.9 20:08:54 10° NNW 20:15:53 68° NE 20:23:17 10° SE
Meteor 2-14 Rocket 4.4 20:10:14 10° S 20:16:20 71° E 20:22:28 10° NNE
Okean 2 3.4 20:14:21 10° N 20:18:32 71° E 20:22:40 10° SSE
BREEZE-M DEB (TANK) 4.5 20:15:44 10° NW 20:18:37 33° NNE 20:25:42 10° E
Cosmos 1025 Rocket 3.8 20:16:59 10° NNW 20:21:17 55° W 20:25:30 10° S
Cosmos 2219 4.3 20:16:43 10° NW 20:22:03 45° WSW 20:27:22 10° S
Cosmos 1455 Rocket 3.0 20:17:58 10° S 20:22:12 60° E 20:26:30 10° NNE
Cosmos 1975 3.7 20:21:01 10° SSE 20:24:34 29° E 20:28:09 10° NNE
Cosmos 1602 Rocket 4.3 20:21:33 10° N 20:25:39 34° ENE 20:29:12 13° SE
Cosmos 1570 Rocket 4.0 20:23:15 10° S 20:28:32 72° ESE 20:33:48 10° NNE
Resurs 01 Rocket 3.8 20:29:11 10° SSW 20:32:56 27° W 20:36:42 10° NW
Cosmos 1934 Rocket 4.0 20:27:34 10° S 20:33:42 89° W 20:39:56 10° N
Meteor 2-4 Rocket 4.4 20:28:15 10° NNW 20:33:59 60° W 20:39:47 10° S
Cosmos 1461 3.0 20:30:34 10° NNW 20:34:35 53° NE 20:37:13 19° SE
Envisat 3.7 20:31:01 14° SE 20:34:51 37° ENE 20:39:29 10° N
Lacrosse 5 rocket 2.0 20:32:02 10° NNW 20:35:30 35° NE 20:37:38 18° E
Meteor 1-12 Rocket 4.4 20:30:51 10° SSE 20:36:21 52° E 20:42:00 10° NNE
Cosmos 2278 3.6 20:34:29 10° SSW 20:40:06 71° ESE 20:45:48 10° NNE
Cosmos 1697 Rocket 3.6 20:36:06 10° SSE 20:40:40 26° ESE 20:45:15 10° NE
EP 1 4.0 20:39:15 10° SSW 20:41:43 64° ESE 20:44:17 10° NE
Tiangong 1 1.0 20:39:52 10° W 20:42:57 79° N 20:44:50 22° ENE
CZ-4 DEB 2.7 20:42:04 20° SSE 20:44:03 60° ENE 20:47:10 10° N
DELTA 2 R/B (1) 3.6 20:39:39 10° W 20:45:11 72° S 20:49:02 20° ESE
NOSS 7 (E) 4.4 20:43:09 10° SW 20:46:41 86° NW 20:50:06 10° NE
USA 186 2.9 20:45:17 10° S 20:48:16 41° W 20:51:09 10° NNW
H-2A R/B 4.0 20:46:24 10° S 20:50:04 42° W 20:53:48 10° NNW
OTV 4 1.2 20:49:01 10° WSW 20:51:46 35° S 20:52:22 32° SSE
Cosmos 2369 3.6 20:47:21 10° SSW 20:53:00 80° ESE 20:58:44 10° NNE
Cosmos 1939 Rocket 3.0 20:52:34 23° SSE 20:55:00 59° ENE 20:59:07 10° N
Iridium 4 Rocket 3.3 20:50:19 10° N 20:55:33 70° E 20:59:35 14° S
NOSS 7 (H) 4.2 20:53:34 10° SSW 20:56:47 66° ESE 21:00:11 10° NE
Cosmos 220 Rocket 4.0 20:52:47 10° NNW 20:56:58 56° ENE 20:58:53 29° SE
SJ-11-01 4.3 20:57:41 14° SSE 21:01:40 87° WSW 21:06:23 10° NNW
Cosmos 1980 Rocket 3.2 21:02:28 24° E 21:02:28 24° E 21:06:45 10° NE
OAO 2 Rocket 4.1 20:58:12 10° SW 21:02:40 32° SSE 21:03:58 28° SE
ARGOS 4.2 21:08:00 25° E 21:09:31 28° ENE 21:14:03 10° N
ERS-1 Rocket 3.0 21:07:31 16° S 21:11:32 77° WSW 21:16:35 10° NNW
Cosmos 1898 Rocket 3.6 21:07:10 10° NNW 21:12:25 58° ENE 21:14:34 34° SE
Cosmos 2173 Rocket 4.2 21:09:22 19° SSE 21:13:53 53° E 21:20:02 10° NNE
SL-24 R/B - RUBIN 2 4.3 21:09:59 10° SSW 21:15:43 65° ESE 21:22:07 10° NE
Cosmos 2061 Rocket 4.0 21:15:45 20° SSE 21:20:10 59° E 21:26:19 10° NNE
Cosmos 2100 Rocket 3.9 21:17:20 15° S 21:22:32 68° E 21:28:44 10° NNE
RESURS DK-1 3.1 21:19:13 10° N 21:23:04 36° ENE 21:23:22 35° ENE
Cosmos 2227 Rocket 3.0 21:23:09 10° NW 21:28:33 47° WSW 21:32:24 18° S
MetOp-B 4.1 21:28:50 41° SE 21:30:39 68° ENE 21:35:59 10° N
Cosmos 2263 Rocket 4.3 21:29:20 10° NNE 21:31:23 12° NE 21:33:00 11° ENE
Cosmos 468 Rocket 3.8 21:29:32 13° SSW 21:34:06 80° ESE 21:39:15 10° NNE
Cosmos 1500 3.7 21:34:20 30° SSW 21:35:59 58° W 21:39:43 10° N
Cosmos 1825 Rocket 3.4 21:33:30 10° N 21:37:56 69° E 21:38:16 66° ESE
BREEZE-M DEB (TANK) 3.6 21:27:00 10° WSW 21:40:43 79° SSE 21:42:56 34° ENE
Cosmos 1814 Rocket 3.9 21:37:53 25° S 21:41:05 78° ESE 21:46:25 10° NNE
Cosmos 1656 3.8 21:35:58 10° SSW 21:41:35 73° WNW 21:47:10 10° NNE
USA 245 4.5 21:39:43 44° SE 21:41:37 66° ENE 21:47:56 10° N
Cosmos 841 Rocket 4.3 21:44:37 34° ENE 21:44:37 34° ENE 21:48:10 10° NE
Cosmos 972 Rocket 4.3 21:38:29 10° NNW 21:44:21 88° ENE 21:46:40 42° SSE
Cosmos 2297 Rocket 2.9 21:39:00 10° NW 21:44:26 49° WSW 21:47:09 27° SSW
USA 215 3.7 21:42:02 33° E 21:44:51 54° NNE 21:51:11 10° NW
Cosmos 1953 Rocket 3.6 21:41:46 10° N 21:45:59 61° ENE 21:45:59 61° ENE
H-2A R/B 2.6 21:49:23 42° SW 21:50:13 49° W 21:54:14 10° NNW
Lacrosse 5 1.9 21:46:00 10° NW 21:51:03 63° NE 21:51:36 59° ENE
Cosmos 1340 3.2 21:48:29 10° N 21:51:29 53° N 21:51:29 53° N
SPOT 5 3.2 21:52:31 43° SSW 21:54:04 64° WSW 21:58:58 10° NNW
deb Chang Zheng 4 4.4 21:50:02 10° N 21:54:23 51° WNW 21:57:04 21° SW
Cosmos 1725 Rocket 4.0 21:57:36 55° ESE 21:58:10 57° E 22:04:16 10° NNE
Cosmos 1459 Rocket 4.3 21:59:01 19° SSW 22:03:21 62° W 22:09:24 10° N
Cosmos 1758 Rocket 3.8 22:01:05 10° N 22:04:48 63° N 22:04:48 63° N
Cosmos 1743 3.6 22:06:26 47° WNW 22:06:26 47° WNW 22:10:12 10° N
H-2A R/B 2.5 22:10:13 45° NE 22:10:13 45° NE 22:14:19 10° N
BREEZE-M DEB (TANK) 4.3 21:49:37 10° WNW 22:10:21 64° NNE 22:12:42 40° ENE
YAOGAN 6 4.0 22:12:12 36° WNW 22:12:12 36° WNW 22:15:03 10° NNW
Lacrosse 5 rocket 3.2 22:11:33 10° WNW 22:13:22 20° W 22:13:22 20° W
GEOS 3 Rocket 3.6 22:10:40 10° NE 22:15:08 67° NE 22:15:08 67° NE
Cosmos 2098 Rocket 4.0 22:14:26 51° S 22:16:25 88° E 22:22:37 10° N
Tiangong 1 4.2 22:16:28 10° W 22:16:48 13° WNW 22:16:48 13° WNW
Cosmos 1937 Rocket 4.1 22:15:27 10° NNW 22:20:31 49° WSW 22:21:02 47° WSW
Landsat 7 4.3 22:24:23 56° N 22:24:23 56° N 22:28:12 10° N
Cosmos 1697 Rocket 3.7 22:18:56 10° SW 22:24:21 45° WNW 22:29:46 10° NNE
Cosmos 2058 Rocket 3.9 22:25:44 49° NNW 22:25:44 49° NNW 22:29:09 10° N
SL-16 R/B 3.8 22:29:58 23° NE 22:29:58 23° NE 22:32:15 10° NE
Cosmos 2233 Rocket 4.2 22:27:58 55° ENE 22:27:58 55° ENE 22:33:18 10° NNE
CZ-4 R/B 4.4 22:23:07 10° NNE 22:26:36 50° NNE 22:26:36 50° NNE
SPOT 1/Viking Rocket 4.0 22:28:06 53° WSW 22:28:20 54° W 22:33:28 10° NNW
NOAA 11 4.5 22:29:44 57° WSW 22:30:04 58° W 22:35:30 10° NNW
Meteor 1-15 Rocket 4.3 22:35:41 82° WNW 22:35:41 82° WNW 22:41:35 10° N
Terra 2.7 22:40:16 44° N 22:40:16 44° N 22:43:34 10° N
CZ-4B R/B 4.2 22:39:47 10° N 22:44:02 47° WNW 22:44:02 47° WNW
Cosmos 1980 Rocket 2.9 22:44:07 37° WSW 22:45:57 50° WNW 22:51:29 10° NNE
ARGOS 4.1 22:49:32 39° W 22:49:35 39° W 22:54:36 10° NNW
Cosmos 1125 Rocket 4.4 22:55:31 10° NNW 22:59:15 47° NW 22:59:15 47° NW
Cosmos 2263 Rocket 3.1 23:10:51 10° NNW 23:14:41 44° N 23:14:41 44° N
Cosmos 2322 Rocket 3.2 23:18:33 41° N 23:18:33 41° N 23:22:12 10° NNE
USA 215 4.0 23:29:23 42° W 23:29:23 42° W 23:34:10 10° WNW
Lacrosse 5 4.3 23:29:44 10° WNW 23:30:48 14° W 23:30:48 14° W
H-2A R/B 4.3 23:50:52 17° WNW 23:50:52 17° WNW 23:52:47 10° NW
